{"data":{"norad_id":65898,"intl_designator":"2025-224S","name":"STARLINK-34936","alt_names":[],"object_type":"PAYLOAD","status":"ACTIVE","operator":null,"country":"US","launch_date":"2025-10-07","launch_site_code":"AFETR","launch_vehicle":null,"mission":null,"orbit_class":"UNKNOWN","rcs_meters":null,"size_class":null,"mass_kg":null,"dimensions":null,"purposes":["comms"],"wikipedia_slug":null,"has_3d_model":false,"image_url":null,"decayed_at":null,"tle_current":{"epoch":"2026-09-20T11:55:41.605248Z","epoch_age_seconds":106357,"freshness":"FRESH","line1":"1 65898U 25224S   26263.49700932  .00017502  00000+0  52822-3 0  9990","line2":"2 65898  53.1591 181.9819 0000631 113.7806 246.3263 15.34381444 54760","mean_motion":15.34381444,"eccentricity":6.31e-5,"inclination_deg":53.1591,"raan_deg":181.9819,"arg_perigee_deg":113.7806,"mean_anomaly_deg":246.3263,"bstar":0.00052822,"rev_number":5476,"period_min":93.848893026629,"perigee_km":462.32673260612,"apogee_km":463.19005360473,"semimajor_km":6840.8953931054,"source":"CELESTRAK","updated_at":"2026-09-21T09:00:35.759537Z"}}}